[[{"header":{"parameterUnit":"m.s-1","parameterCategory":1,"la1":30.2991,"la2":30.254,"lo1":-89.0895,"lo2":-89.0444,"dy":0.0017,"dx":0.0017,"nx":28,"ny":28,"refTime":"2025-03-23T21:00:00:Z","depth":0,"parameterNumber":2,"parameterNumberName":"U-component_of_WINDS"},"data":[0,0,0,0,0,0,0,0,0,0,0,0,0,0,0,0,0,0,0,0,0,0,0,0,0,0,0,0,0,0,0,0,0,0,0,0,0,0,0,0,0,0,0,0,0,0,0,0,0,0,0,0,0,0,0,0,0,0,-0.0981,-0.0981,0,-0.0976,-0.0976,-0.0976,-0.0978,-0.0978,-0.0979,-0.0979,-0.0974,-0.0974,-0.0974,0,0,0,0,0,0,0,0,0,0,0,0,0,-0.0994,-0.0993,-0.0981,-0.0981,-0.0981,-0.0976,-0.0976,-0.0976,-0.0978,-0.0978,-0.0979,-0.0979,-0.0974,-0.0974,-0.0974,0,0,0,0,0,0,0,0,0,0,0,0,0,-0.0988,-0.0993,-0.0981,-0.0982,-0.0982,-0.0976,-0.0976,-0.0976,-0.0978,-0.0978,-0.0979,-0.0979,-0.0974,-0.0974,-0.0974,-0.0968,0,0,-0.0972,-0.0972,0,0,0,0,0,0,0,0,-0.0989,-0.0988,-0.0982,-0.0982,-0.0982,-0.0978,-0.0979,-0.0973,-0.0978,-0.098,-0.0979,-0.0979,-0.0975,-0.0975,-0.0974,-0.0967,-0.0967,-0.0972,-0.0972,-0.0972,-0.0972,0,0,0,0,0,0,0,-0.0989,-0.0988,-0.0979,-0.0982,-0.0981,-0.0982,-0.0982,-0.0978,-0.0976,-0.0979,-0.098,-0.0979,-0.0975,-0.0974,-0.0973,-0.0967,-0.0972,-0.0972,-0.0972,-0.0972,-0.0956,-0.0955,0,0,0,0,0,0,-0.0989,-0.0988,-0.0979,-0.0979,-0.0986,-0.0982,-0.0981,-0.0979,-0.0976,-0.0976,-0.0979,-0.0979,-0.0974,-0.0974,-0.0973,-0.0966,-0.0972,-0.0972,-0.0972,-0.0956,-0.0956,-0.0955,0,0,0,0,0,0,-0.0989,-0.0988,-0.098,-0.0984,-0.0983,-0.0981,-0.0979,-0.0979,-0.0977,-0.0976,-0.0976,-0.0977,-0.0974,-0.0974,-0.0969,-0.0966,-0.0972,-0.0971,-0.0956,-0.0956,-0.0955,-0.0951,0,0,0,0,0,0,-0.099,-0.0988,-0.0986,-0.0984,-0.0982,-0.0975,-0.0979,-0.0979,-0.0977,-0.0977,-0.0975,-0.0975,-0.0975,-0.0969,-0.0969,-0.0965,-0.0971,-0.0956,-0.0956,-0.0955,-0.0952,-0.0951,-0.095,0,0,0,0,0,-0.099,-0.0985,-0.0986,-0.0985,-0.0979,-0.0975,-0.0974,-0.0974,-0.0976,-0.0974,-0.0973,-0.0975,-0.0966,-0.0969,-0.0968,-0.0965,-0.0956,-0.0956,-0.0956,-0.0952,-0.0951,-0.095,0,0,0,0,0,0,-0.0988,-0.0985,-0.0986,-0.098,-0.0978,-0.0975,-0.0972,-0.0973,-0.0971,-0.0971,-0.0971,-0.0971,-0.0966,-0.0965,-0.0968,-0.0959,-0.0962,-0.0961,-0.0959,-0.0958,-0.0958,-0.0958,-0.0971,0,0,0,0,0,-0.0987,-0.0983,-0.0981,-0.0976,-0.0975,-0.0974,-0.0972,-0.0972,-0.097,-0.0969,-0.0968,-0.0965,-0.0962,-0.096,-0.0957,-0.0952,-0.0951,-0.0949,-0.0948,-0.0947,-0.0947,-0.0943,-0.0942,-0.0954,-0.0954,-0.0954,0,0,-0.0984,-0.0982,-0.098,-0.0975,-0.0974,-0.097,-0.0973,-0.0969,-0.0966,-0.0968,-0.0963,-0.0962,-0.096,-0.0955,-0.0952,-0.0954,-0.0943,-0.0947,-0.0946,-0.0946,-0.0943,-0.0942,-0.0941,-0.0953,-0.0953,-0.0953,0,0,-0.0978,-0.0976,-0.0971,-0.0969,-0.0967,-0.0966,-0.0965,-0.0962,-0.0962,-0.0957,-0.0958,-0.0955,-0.095,-0.0948,-0.0946,-0.0938,-0.094,-0.0938,-0.0934,-0.093,-0.0929,-0.0928,-0.0926,-0.0925,-0.0937,-0.0937,-0.0937,0,-0.0975,-0.0969,-0.0969,-0.0965,-0.0963,-0.0964,-0.0959,-0.0958,-0.0954,-0.0953,-0.0954,-0.0947,-0.0946,-0.094,-0.0938,-0.0937,-0.0936,-0.0938,-0.0929,-0.0929,-0.0928,-0.0925,-0.0924,-0.0937,-0.0937,-0.0937,-0.0937,0,-0.0966,-0.0962,-0.0959,-0.0955,-0.0953,-0.0948,-0.0947,-0.0945,-0.0945,-0.0944,-0.0939,-0.0937,-0.0934,-0.0933,-0.0933,-0.0927,-0.0928,-0.0929,-0.0932,-0.0926,-0.0924,-0.0923,-0.0936,-0.0936,-0.0936,-0.0937,0,0,-0.0958,-0.0954,-0.0953,-0.0951,-0.0947,-0.0945,-0.094,-0.0937,-0.0934,-0.0932,-0.0928,-0.0924,-0.0925,-0.0923,-0.0923,-0.092,-0.0914,-0.0922,-0.0922,-0.0921,-0.0907,-0.0905,-0.0904,-0.0915,-0.0915,-0.0915,-0.0907,0,-0.0952,-0.0944,-0.0943,-0.0936,-0.0932,-0.0933,-0.0929,-0.0927,-0.0926,-0.0923,-0.0922,-0.0918,-0.0921,-0.0919,-0.0917,-0.0916,-0.0911,-0.0916,-0.0912,-0.0911,-0.0912,-0.0903,-0.0901,-0.0894,-0.0906,-0.0906,-0.0906,0,-0.0943,-0.0939,-0.0932,-0.0928,-0.0927,-0.0923,-0.092,-0.0917,-0.0914,-0.0914,-0.0911,-0.0912,-0.0907,-0.0911,-0.0905,-0.0908,-0.0906,-0.0905,-0.0905,-0.0904,-0.0908,-0.0902,-0.0892,-0.0891,-0.0904,-0.0904,-0.0904,0,-0.0938,-0.0931,-0.0926,-0.0924,-0.092,-0.0918,-0.0916,-0.0914,-0.0911,-0.0908,-0.0907,-0.0903,-0.0901,-0.0899,-0.0898,-0.0901,-0.0892,-0.0896,-0.0892,-0.0892,-0.089,-0.089,-0.0879,-0.0889,-0.0889,-0.0889,-0.0889,0,-0.093,-0.0925,-0.0923,-0.092,-0.0915,-0.0914,-0.0909,-0.0907,-0.0905,-0.0901,-0.0902,-0.0899,-0.0898,-0.0895,-0.0895,-0.089,-0.0889,-0.0888,-0.0888,-0.0888,-0.0888,-0.0887,-0.0888,-0.0889,-0.0889,-0.0889,-0.0889,0,-0.0923,-0.0922,-0.0916,-0.0913,-0.0912,-0.0908,-0.0905,-0.0902,-0.0901,-0.0896,-0.0895,-0.0894,-0.089,-0.0889,-0.0884,-0.0884,-0.0878,-0.0879,-0.0879,-0.0879,-0.0875,-0.0875,-0.0863,-0.0862,-0.0872,-0.0872,-0.0872,0,-0.0919,-0.0915,-0.0911,-0.0908,-0.0907,-0.0903,-0.09,-0.0899,-0.0897,-0.0893,-0.089,-0.0886,-0.0883,-0.0877,-0.0875,-0.0872,-0.0872,-0.0868,-0.0872,-0.0872,-0.0872,-0.0872,-0.0872,-0.0867,-0.0867,-0.0867,-0.0867,0,-0.091,-0.091,-0.0906,-0.0902,-0.0898,-0.0895,-0.0892,-0.089,-0.0889,-0.0886,-0.0882,-0.0879,-0.0874,-0.087,-0.0866,-0.0865,-0.0866,-0.0866,-0.0865,-0.0865,-0.0865,-0.0865,-0.0877,-0.0866,-0.0866,-0.0866,-0.0866,-0.0866,-0.0905,-0.0901,-0.0898,-0.0893,-0.0891,-0.0888,-0.0884,-0.0883,-0.0879,-0.0875,-0.0874,-0.087,-0.0867,-0.0862,-0.086,-0.0857,-0.0858,-0.0856,-0.0856,-0.0856,-0.0855,-0.0865,-0.0856,-0.0856,-0.0856,-0.0856,-0.0856,0,-0.0896,-0.0894,-0.089,-0.0885,-0.0882,-0.0882,-0.0879,-0.0876,-0.0872,-0.0869,-0.0865,-0.086,-0.0856,-0.0854,-0.085,-0.0848,-0.0848,-0.0847,-0.0847,-0.0847,-0.0854,-0.0856,-0.0847,-0.0847,-0.0847,-0.0847,-0.0847,-0.0847,-0.0891,-0.0886,-0.0884,-0.0877,-0.0875,-0.087,-0.0868,-0.0865,-0.0863,-0.0857,-0.0853,-0.0852,-0.085,-0.0845,-0.0842,-0.0841,-0.084,-0.0838,-0.0838,-0.0845,-0.0846,-0.0847,-0.0848,-0.0838,-0.0838,-0.0831,-0.0831,-0.0831]},{"header":{"parameterUnit":"m.s-1","parameterCategory":1,"la1":30.2991,"la2":30.254,"lo1":-89.0895,"lo2":-89.0444,"dy":0.0017,"dx":0.0017,"nx":28,"ny":28,"refTime":"2025-03-23T21:00:00:Z","depth":0,"parameterNumber":3,"parameterNumberName":"V-component_of_WINDS"},"data":[0,0,0,0,0,0,0,0,0,0,0,0,0,0,0,0,0,0,0,0,0,0,0,0,0,0,0,0,0,0,0,0,0,0,0,0,0,0,0,0,0,0,0,0,0,0,0,0,0,0,0,0,0,0,0,0,0,0,5.4481,5.4481,0,5.4513,5.4513,5.4514,5.4463,5.4461,5.4459,5.4457,5.4487,5.4489,5.4491,0,0,0,0,0,0,0,0,0,0,0,0,0,5.4373,5.4376,5.4481,5.4481,5.4482,5.4513,5.4513,5.4514,5.4463,5.4461,5.4459,5.4457,5.4486,5.4489,5.4492,0,0,0,0,0,0,0,0,0,0,0,0,0,5.4414,5.4376,5.4481,5.446,5.4459,5.4513,5.4514,5.4514,5.4463,5.4461,5.4458,5.4456,5.4485,5.4488,5.4492,5.4567,0,0,5.4503,5.4505,0,0,0,0,0,0,0,0,5.4412,5.4418,5.4463,5.4462,5.446,5.4481,5.4486,5.4532,5.4464,5.4461,5.4457,5.4454,5.4487,5.449,5.4502,5.4568,5.457,5.4503,5.4506,5.4507,5.4508,0,0,0,0,0,0,0,5.4409,5.4416,5.4494,5.4464,5.4462,5.4449,5.4451,5.4495,5.4488,5.4461,5.4458,5.4463,5.4485,5.4498,5.4502,5.457,5.4503,5.4506,5.4509,5.451,5.4702,5.4705,0,0,0,0,0,0,5.4409,5.4414,5.4493,5.4495,5.4429,5.4453,5.4456,5.4477,5.4488,5.4487,5.4465,5.446,5.4493,5.4498,5.4503,5.4593,5.4507,5.451,5.4513,5.4699,5.4702,5.4706,0,0,0,0,0,0,5.4407,5.4417,5.4491,5.4454,5.4462,5.4457,5.4482,5.4479,5.4492,5.449,5.4489,5.4479,5.4492,5.4498,5.4552,5.4593,5.4512,5.4515,5.4695,5.47,5.4704,5.4773,0,0,0,0,0,0,5.4404,5.4416,5.4445,5.4455,5.4464,5.4541,5.4484,5.4482,5.4499,5.4493,5.4503,5.4503,5.449,5.4547,5.4556,5.4597,5.4518,5.4692,5.4698,5.4703,5.4767,5.4779,5.479,0,0,0,0,0,5.4401,5.4462,5.4447,5.4457,5.45,5.4543,5.4549,5.4534,5.4502,5.4531,5.453,5.4502,5.4587,5.4553,5.4562,5.4605,5.4689,5.4696,5.4702,5.4762,5.4777,5.479,0,0,0,0,0,0,5.4455,5.4463,5.4446,5.4512,5.4528,5.4535,5.457,5.455,5.4574,5.4567,5.4546,5.4549,5.4608,5.4612,5.4574,5.4679,5.4633,5.4642,5.4675,5.4689,5.47,5.4699,5.4521,0,0,0,0,0,5.4475,5.4511,5.4515,5.4573,5.4582,5.4575,5.4593,5.4581,5.4595,5.4601,5.4604,5.4619,5.4649,5.4669,5.4696,5.4767,5.477,5.4801,5.4813,5.4822,5.483,5.487,5.4885,5.4727,5.4727,5.4727,0,0,5.4517,5.4525,5.4548,5.4584,5.4595,5.4632,5.4581,5.4621,5.4648,5.4607,5.4659,5.4662,5.4677,5.4741,5.4769,5.4746,5.4874,5.483,5.4838,5.4841,5.4878,5.4893,5.4907,5.4732,5.4731,5.473,0,0,5.4611,5.4621,5.4672,5.4684,5.4701,5.4697,5.4709,5.472,5.4721,5.4773,5.4744,5.4775,5.4827,5.4839,5.4852,5.4954,5.493,5.4963,5.5023,5.5062,5.5074,5.5085,5.5124,5.5137,5.4971,5.4971,5.4972,0,5.466,5.4715,5.47,5.4744,5.4761,5.4727,5.4778,5.479,5.4815,5.4828,5.4801,5.4868,5.4875,5.4942,5.4967,5.4978,5.4992,5.4963,5.5074,5.5085,5.5095,5.5131,5.5145,5.4976,5.4975,5.4975,5.4974,0,5.4776,5.4814,5.4853,5.4881,5.4902,5.4949,5.4941,5.4964,5.495,5.4948,5.5003,5.5011,5.5041,5.5055,5.5041,5.5121,5.5107,5.5078,5.503,5.5114,5.5148,5.5162,5.4982,5.498,5.4979,5.4978,0,0,5.4905,5.4925,5.494,5.4953,5.4971,5.5,5.5046,5.5076,5.5098,5.5116,5.5155,5.52,5.5174,5.5189,5.5176,5.521,5.5293,5.5177,5.5177,5.52,5.5384,5.5407,5.5424,5.5277,5.5279,5.5281,5.5384,0,5.5001,5.5082,5.507,5.5148,5.5185,5.5154,5.5194,5.5209,5.5209,5.5239,5.5238,5.5272,5.5234,5.5244,5.5276,5.5276,5.533,5.5268,5.5313,5.5315,5.5312,5.5441,5.5465,5.5561,5.5397,5.5399,5.54,0,5.5123,5.5149,5.5232,5.5246,5.5261,5.5297,5.5326,5.5355,5.5372,5.5369,5.5388,5.5369,5.5415,5.5367,5.543,5.5389,5.5406,5.5409,5.5412,5.5417,5.5364,5.5451,5.5591,5.5606,5.5421,5.5419,5.5417,0,5.5212,5.5267,5.5324,5.5336,5.5353,5.538,5.5389,5.5403,5.5423,5.5447,5.546,5.5488,5.5504,5.5527,5.5517,5.5482,5.5583,5.5533,5.5583,5.5583,5.5606,5.5605,5.5753,5.5615,5.5614,5.5614,5.5614,0,5.5321,5.5373,5.5365,5.54,5.5458,5.5444,5.5501,5.5505,5.5518,5.5554,5.5528,5.5561,5.5545,5.5577,5.5569,5.5624,5.5631,5.5631,5.5628,5.5634,5.5634,5.5646,5.564,5.5618,5.5617,5.5616,5.5616,0,5.543,5.5427,5.5487,5.55,5.5504,5.5547,5.5557,5.559,5.5588,5.5634,5.5643,5.5641,5.5678,5.567,5.5709,5.5704,5.5774,5.5762,5.5769,5.5767,5.5818,5.5814,5.598,5.6002,5.5848,5.5849,5.585,0,5.5501,5.5541,5.5559,5.5582,5.5593,5.5629,5.5651,5.5638,5.5661,5.5684,5.5715,5.575,5.5777,5.5838,5.5839,5.587,5.586,5.5916,5.5864,5.587,5.5863,5.5862,5.5866,5.5927,5.5928,5.593,5.5931,0,5.5628,5.5625,5.5657,5.569,5.5716,5.574,5.5762,5.5781,5.5771,5.5798,5.5837,5.5858,5.59,5.5936,5.5965,5.5972,5.5951,5.5947,5.5961,5.5968,5.5971,5.5972,5.5799,5.5944,5.5942,5.5941,5.5941,5.594,5.5721,5.5756,5.5775,5.5813,5.5828,5.5849,5.5882,5.5886,5.5918,5.5953,5.5943,5.5988,5.6004,5.6042,5.6053,5.6087,5.6066,5.6085,5.609,5.6096,5.6103,5.5965,5.6092,5.6092,5.6091,5.6091,5.6091,0,5.5848,5.586,5.5894,5.5927,5.5957,5.5934,5.5958,5.5984,5.6024,5.6042,5.6071,5.6116,5.6151,5.6156,5.6189,5.6216,5.6207,5.6225,5.6224,5.6226,5.6119,5.6105,5.6232,5.6232,5.6232,5.6232,5.6232,5.6232,5.5918,5.5977,5.5977,5.6043,5.6053,5.6099,5.6114,5.6134,5.6149,5.6202,5.6231,5.6235,5.6248,5.6282,5.6313,5.6314,5.6328,5.6351,5.6348,5.6247,5.6233,5.622,5.6207,5.6353,5.6354,5.6452,5.6453,5.6454]}]]